FW5295 Weather Reports


time (UTC)temp
F
wind
direction
speed
knots
gust
knots
rain 1hr
in
rain 24hr
in
rain mn
in
humidity
%
barometer
mb
20260509071304 51 170 1.7 2.6 0.00 0.00 0.00 91 1003.5
20260509070807 51 197 1.7 5.2 0.00 0.00 0.00 91 1003.5
20260509070303 51 211 1.7 5.2 0.00 0.00 0.00 91 1003.9
20260509065804 51 241 0.0 5.2 0.00 0.00 0.00 90 1003.5
20260509065305 51 165 1.7 5.2 0.00 0.00 0.00 90 1003.9
20260509064801 51 205 2.6 4.3 0.00 0.00 0.00 90 1003.9
20260509064301 52 208 0.9 4.3 0.00 0.00 0.00 90 1004.2
20260509063803 52 213 1.7 3.5 0.00 0.00 0.00 90 1004.2
20260509063300 52 269 0.0 4.3 0.00 0.00 0.00 90 1004.2
20260509063016 52 217 0.9 4.3 0.00 0.00 0.00 90 1004.6
20260509062257 52 239 2.6 7.8 0.00 0.00 0.00 89 1004.6
20260509061758 52 228 2.6 7.8 0.00 0.00 0.00 89 1004.6
20260509061258 53 209 1.7 4.3 0.00 0.00 0.00 89 1004.2
20260509060756 53 228 1.7 4.3 0.00 0.00 0.00 89 1004.2
20260509060258 53 221 2.6 3.5 0.00 0.00 0.00 89 1004.6
20260509055755 53 178 1.7 7.0 0.00 0.00 0.00 89 1004.6
20260509055522 53 211 1.7 7.0 0.00 0.00 0.00 88 1004.6
20260509054754 53 212 2.6 4.3 0.00 0.00 0.00 88 1004.6
20260509054255 53 213 1.7 5.2 0.00 0.00 0.00 88 1004.6
20260509053753 53 229 4.3 5.2 0.00 0.00 0.00 87 1004.9
20260509053253 53 183 1.7 5.2 0.00 0.00 0.00 87 1004.9
20260509052752 54 186 1.7 5.2 0.00 0.00 0.00 87 1004.6
20260509052252 54 210 1.7 4.3 0.00 0.00 0.00 87 1004.6
20260509051753 54 188 1.7 4.3 0.00 0.00 0.00 86 1004.6
20260509051255 54 223 2.6 5.2 0.00 0.00 0.00 86 1004.6
20260509050749 54 190 1.7 5.2 0.00 0.00 0.00 85 1004.6
20260509050251 54 195 2.6 5.2 0.00 0.00 0.00 85 1004.9
20260509045752 54 232 5.2 5.2 0.00 0.00 0.00 84 1004.6
20260509045249 54 192 1.7 5.2 0.00 0.00 0.00 84 1004.6
20260509045017 55 220 2.6 5.2 0.00 0.00 0.00 83 1004.6
20260509044251 55 206 3.5 4.3 0.00 0.00 0.00 82 1004.6
20260509043747 55 220 3.5 5.2 0.00 0.00 0.00 82 1004.6
20260509043247 55 178 0.0 5.2 0.00 0.00 0.00 81 1004.6
20260509043012 55 185 1.7 4.3 0.00 0.00 0.00 80 1004.6
20260509042245 55 183 2.6 4.3 0.00 0.00 0.00 79 1004.6
20260509041747 55 200 1.7 4.3 0.00 0.00 0.00 79 1004.6
20260509041602 55 194 1.7 6.1 0.00 0.00 0.00 78 1004.6
20260509041459 56 210 2.6 6.1 0.00 0.00 0.00 78 1004.6
20260509040245 56 196 2.6 5.2 0.00 0.00 0.00 77 1004.6
20260509035743 56 202 1.7 5.2 0.00 0.00 0.00 76 1004.6
20260509035242 56 207 2.6 4.3 0.00 0.00 0.00 76 1004.9
20260509034743 56 225 1.7 5.2 0.00 0.00 0.00 75 1004.9
20260509034501 56 212 4.3 5.2 0.00 0.00 0.00 75 1004.9
20260509034354 56 232 3.5 5.2 0.00 0.00 0.00 75 1004.9
20260509033501 57 193 1.7 6.1 0.00 0.00 0.00 74 1004.9
20260509032741 57 221 1.7 6.1 0.00 0.00 0.00 74 1004.9
20260509032239 57 231 1.7 6.1 0.00 0.00 0.00 73 1004.9
20260509031741 57 187 1.7 4.3 0.00 0.00 0.00 72 1004.9
20260509031238 57 227 3.5 4.3 0.00 0.00 0.00 71 1004.9
20260509030739 58 217 1.7 7.0 0.00 0.00 0.00 70 1004.9
20260509030238 58 199 1.7 7.0 0.00 0.00 0.00 69 1004.9
20260509025737 58 225 3.5 5.2 0.00 0.00 0.00 68 1004.9
20260509025237 58 193 2.6 5.2 0.00 0.00 0.00 66 1004.9
20260509024736 58 208 1.7 4.3 0.00 0.00 0.00 64 1004.9
20260509024237 58 189 1.7 3.5 0.00 0.00 0.00 63 1004.9
20260509023735 58 207 1.7 3.5 0.00 0.00 0.00 62 1004.9
20260509023234 58 190 1.7 3.5 0.00 0.00 0.00 62 1004.9
20260509022736 58 211 1.7 3.5 0.00 0.00 0.00 62 1004.9
20260509022234 58 202 0.9 2.6 0.00 0.00 0.00 62 1004.9
20260509021734 58 224 2.6 2.6 0.00 0.00 0.00 62 1004.9
20260509021232 58 191 1.7 2.6 0.00 0.00 0.00 62 1004.9
20260509020732 58 165 0.0 1.7 0.00 0.00 0.00 62 1004.9
20260509020451 58 201 1.7 1.7 0.00 0.00 0.00 63 1004.6
20260509015732 58 180 0.0 1.7 0.00 0.00 0.00 62 1004.6
20260509015450 59 186 0.9 1.7 0.00 0.00 0.00 61 1004.6
20260509014731 59 195 0.9 1.7 0.00 0.00 0.00 62 1004.9
20260509014716 59 162 0.9 1.7 0.00 0.00 0.00 62 1004.9
20260509014342 59 224 0.9 1.7 0.00 0.00 0.00 61 1004.6
20260509013449 59 179 0.9 1.7 0.00 0.00 0.00 60 1004.6
20260509012729 60 202 0.0 1.7 0.00 0.00 0.00 60 1004.6
20260509012228 60 89 0.0 1.7 0.00 0.00 0.00 59 1004.6
20260509011726 61 173 1.7 2.6 0.00 0.00 0.00 59 1004.9
20260509011228 61 218 1.7 2.6 0.00 0.00 0.00 58 1004.6
20260509010727 61 207 1.7 2.6 0.00 0.00 0.00 58 1004.6
20260509010225 62 206 1.7 3.5 0.00 0.00 0.00 58 1004.6
20260509005725 62 172 1.7 4.3 0.00 0.00 0.00 57 1004.6
20260509005224 62 215 2.6 4.3 0.00 0.00 0.00 56 1004.6
20260509004723 62 187 1.7 3.5 0.00 0.00 0.00 56 1004.6
20260509004222 63 221 2.6 4.3 0.00 0.00 0.00 56 1004.6
20260509003724 63 245 3.5 4.3 0.00 0.00 0.00 56 1004.9
20260509003220 63 195 0.9 4.3 0.00 0.00 0.00 55 1004.6
20260509002722 64 245 2.6 4.3 0.00 0.00 0.00 54 1004.6
20260509002221 64 256 4.3 7.8 0.00 0.00 0.00 53 1004.6
20260509001721 64 223 1.7 7.8 0.00 0.00 0.00 52 1004.9
20260509000718 64 198 2.6 5.2 0.00 0.00 0.00 51 1004.9
20260509000219 64 200 0.0 3.5 0.00 0.00 0.00 49 1004.9
20260508235719 64 173 0.9 2.6 0.00 0.00 0.00 50 1004.9
20260508235217 64 190 0.0 2.6 0.00 0.00 0.00 51 1004.9
20260508234717 64 231 0.0 2.6 0.00 0.00 0.00 50 1004.9
20260508234217 64 183 1.7 1.7 0.00 0.00 0.00 50 1004.9
20260508233715 65 205 0.0 3.5 0.00 0.00 0.00 49 1004.9
20260508233215 65 137 1.7 3.5 0.00 0.00 0.00 46 1005.2
20260508232935 65 218 0.0 2.6 0.00 0.00 0.00 45 1005.2
20260508232218 65 237 1.7 4.3 0.00 0.00 0.00 44 1005.2
20260508231713 65 168 1.7 4.3 0.00 0.00 0.00 44 1004.9
20260508231216 65 148 1.7 2.6 0.00 0.00 0.00 45 1005.2
20260508230714 65 180 0.9 2.6 0.00 0.00 0.00 47 1004.9
20260508230420 65 137 3.5 3.5 0.00 0.00 0.00 44 1005.2
20260508230311 65 150 0.0 3.5 0.00 0.00 0.00 45 1004.9
20260508225212 64 183 0.9 2.6 0.00 0.00 0.00 44 1005.2
20260508224713 64 201 0.9 2.6 0.00 0.00 0.00 47 1004.9
20260508224209 64 196 1.7 2.6 0.00 0.00 0.00 46 1005.2
20260508223710 64 208 1.7 2.6 0.00 0.00 0.00 48 1005.2
20260508223208 65 205 0.0 2.6 0.00 0.00 0.00 46 1005.2
20260508222710 65 259 1.7 3.5 0.00 0.00 0.00 46 1005.2
20260508222429 65 197 1.7 3.5 0.00 0.00 0.00 45 1004.9
20260508221707 65 213 1.7 3.5 0.00 0.00 0.00 47 1005.2
20260508221207 65 158 2.6 3.5 0.00 0.00 0.00 46 1005.2
20260508220707 65 210 0.9 3.5 0.00 0.00 0.00 47 1005.2
20260508220218 65 164 0.9 5.2 0.00 0.00 0.00 45 1005.2
20260508215705 65 152 3.5 5.2 0.00 0.00 0.00 46 1005.2
20260508215205 64 216 0.0 3.5 0.00 0.00 0.00 45 1005.2
20260508214705 64 170 1.7 2.6 0.00 0.00 0.00 46 1005.2
20260508214204 64 214 1.7 3.5 0.00 0.00 0.00 46 1005.2
20260508213703 64 218 1.7 3.5 0.00 0.00 0.00 46 1005.6
20260508213205 64 166 0.9 3.5 0.00 0.00 0.00 48 1005.2
20260508212703 64 215 0.9 3.5 0.00 0.01 0.00 46 1005.2
20260508212203 64 237 2.6 3.5 0.00 0.01 0.00 49 1005.6
20260508211702 64 157 2.6 3.5 0.00 0.01 0.00 48 1005.6
20260508211203 64 160 2.6 3.5 0.00 0.02 0.00 51 1006.0
20260508210659 64 299 0.0 4.3 0.00 0.02 0.00 51 1005.6
20260508210203 64 106 1.7 4.3 0.00 0.02 0.00 51 1005.6
20260508205700 64 119 3.5 3.5 0.00 0.02 0.00 51 1005.6
20260508205158 64 126 0.0 3.5 0.00 0.02 0.00 52 1005.6
20260508204658 64 180 1.7 3.5 0.00 0.02 0.00 50 1006.0
20260508204159 64 190 0.9 3.5 0.00 0.02 0.00 49 1006.0
20260508203659 64 157 1.7 3.5 0.00 0.02 0.00 52 1006.0
20260508203424 64 145 1.7 3.5 0.00 0.02 0.00 52 1006.3
20260508202923 64 182 2.6 2.6 0.00 0.02 0.00 49 1006.0
20260508202156 64 117 0.9 3.5 0.00 0.02 0.00 50 1006.3
20260508201655 64 113 0.9 7.8 0.00 0.02 0.00 49 1006.7
20260508201155 64 166 3.5 7.8 0.00 0.02 0.00 50 1006.3
20260508200922 64 166 1.7 7.0 0.00 0.02 0.00 52 1006.3
20260508200353 64 155 5.2 8.7 0.00 0.02 0.00 52 1006.7
20260508200244 63 180 1.7 8.7 0.00 0.02 0.00 50 1006.7
20260508195154 65 209 2.6 7.8 0.00 0.02 0.00 51 1006.7
20260508194652 65 153 6.1 7.8 0.00 0.02 0.00 49 1006.7
20260508194415 66 195 2.6 6.1 0.00 0.02 0.00 50 1007.0
20260508193652 65 194 2.6 6.1 0.00 0.02 0.00 48 1006.7
20260508193406 64 182 1.7 6.1 0.00 0.02 0.00 50 1006.7
20260508192910 64 232 0.9 6.1 0.00 0.02 0.00 51 1007.0
20260508192151 64 140 2.6 4.3 0.00 0.02 0.00 48 1007.0
20260508191650 64 297 1.7 3.5 0.00 0.02 0.00 46 1007.0
20260508191150 64 227 0.0 2.6 0.00 0.02 0.00 45 1007.4
20260508191139 64 3 1.7 3.5 0.00 0.02 0.00 44 1007.0
20260508190147 65 309 1.7 5.2 0.00 0.02 0.00 46 1007.4
20260508185647 65 262 1.7 7.8 0.00 0.02 0.00 47 1007.4
20260508185146 65 309 4.3 7.8 0.00 0.02 0.00 47 1007.4
20260508184646 65 231 0.0 5.2 0.00 0.02 0.00 45 1007.0
20260508184145 65 153 3.5 5.2 0.00 0.02 0.00 49 1007.4
20260508183647 65 298 2.6 6.1 0.00 0.02 0.00 42 1007.4
20260508183145 65 228 3.5 7.0 0.00 0.02 0.00 47 1007.4
20260508182645 65 175 3.5 7.8 0.00 0.02 0.00 53 1007.7
20260508182147 64 172 4.3 7.8 0.00 0.02 0.00 51 1007.7
20260508181642 64 99 3.5 5.2 0.00 0.02 0.00 52 1007.7
20260508181142 64 212 0.9 5.2 0.00 0.02 0.00 53 1008.0
20260508180640 63 170 3.5 5.2 0.00 0.02 0.00 52 1007.7
20260508180141 64 192 3.5 9.6 0.00 0.02 0.00 51 1008.0
20260508175907 63 100 1.7 9.6 0.00 0.02 0.00 50 1008.0
20260508175140 63 231 3.5 7.8 0.00 0.02 0.00 52 1008.0
20260508174858 63 247 2.6 7.8 0.00 0.02 0.00 46 1008.0
20260508174138 63 202 2.6 7.8 0.00 0.02 0.00 49 1008.4
20260508173638 63 92 2.6 7.0 0.00 0.02 0.00 51 1008.4
20260508173405 62 134 3.5 7.8 0.00 0.02 0.00 54 1008.0
20260508172639 62 46 0.9 9.6 0.00 0.02 0.00 51 1008.4
20260508172139 62 162 5.2 7.8 0.00 0.02 0.00 50 1008.7
20260508171637 62 163 4.3 8.7 0.00 0.02 0.00 51 1008.7
20260508171135 62 116 7.0 8.7 0.00 0.02 0.00 48 1008.7
20260508170636 62 183 3.5 7.0 0.00 0.02 0.00 47 1008.7
20260508170134 62 109 2.6 7.8 0.00 0.02 0.00 45 1008.7
20260508165633 62 129 7.8 7.8 0.00 0.02 0.00 49 1008.7
20260508165133 62 193 0.9 7.0 0.00 0.02 0.00 43 1008.7
20260508164633 62 118 3.5 6.1 0.00 0.02 0.00 47 1009.1
20260508164133 62 154 3.5 7.0 0.00 0.02 0.00 47 1009.1
20260508163633 62 178 3.5 7.0 0.00 0.02 0.00 43 1009.4
20260508163358 61 238 0.0 7.0 0.00 0.02 0.00 47 1009.4
20260508162631 61 250 1.7 7.0 0.00 0.02 0.00 42 1009.4
20260508162133 61 177 3.5 7.8 0.00 0.02 0.00 43 1009.1
20260508161629 61 166 2.6 7.8 0.00 0.02 0.00 45 1009.4
20260508161130 60 134 1.7 7.8 0.00 0.02 0.00 46 1009.4
20260508160628 60 112 4.3 7.0 0.00 0.02 0.00 46 1009.8
20260508160128 60 145 3.5 8.7 0.00 0.02 0.00 43 1009.1
20260508155627 60 43 2.6 8.7 0.00 0.02 0.00 45 1009.4
20260508155352 60 213 3.5 7.8 0.00 0.02 0.00 48 1009.4
20260508154626 59 98 4.3 9.6 0.00 0.02 0.00 48 1009.8
20260508154126 60 127 4.3 9.6 0.00 0.02 0.00 48 1009.8
20260508153627 60 179 2.6 7.8 0.00 0.02 0.00 50 1009.8
20260508153125 59 81 0.0 7.8 0.00 0.02 0.00 49 1009.8
20260508152626 59 113 3.5 7.8 0.00 0.02 0.00 46 1009.8
20260508152125 59 137 3.5 7.8 0.00 0.02 0.00 44 1009.8
20260508151626 59 149 4.3 6.1 0.00 0.02 0.00 53 1009.8
20260508151348 58 185 1.7 6.1 0.00 0.02 0.00 56 1009.8
20260508150623 58 183 3.5 7.8 0.00 0.02 0.00 54 1009.8
20260508150123 57 165 2.6 7.8 0.00 0.02 0.00 58 1009.8
20260508145626 57 155 2.6 7.8 0.00 0.02 0.00 55 1010.2
20260508145121 56 97 1.7 7.8 0.00 0.02 0.00 58 1010.2
20260508144620 56 126 5.2 7.8 0.00 0.02 0.00 59 1010.2
20260508144121 55 159 7.0 8.7 0.00 0.02 0.00 62 1010.2
20260508143618 55 121 2.6 8.7 0.00 0.02 0.00 64 1010.2
20260508143343 54 123 7.0 7.8 0.00 0.02 0.00 67 1010.2
20260508142618 54 105 2.6 7.0 0.00 0.02 0.00 67 1009.8
20260508142118 53 135 5.2 6.1 0.00 0.02 0.00 71 1010.5
20260508141632 53 139 3.5 7.8 0.00 0.02 0.00 71 1010.2
20260508141117 53 130 3.5 7.8 0.00 0.02 0.00 70 1010.5
20260508140615 53 132 2.6 6.1 0.00 0.02 0.00 72 1010.2
20260508140121 52 127 4.3 7.0 0.00 0.02 0.00 76 1010.2
20260508135615 52 149 5.2 7.0 0.00 0.02 0.00 73 1010.2
20260508135114 51 156 2.6 7.8 0.00 0.02 0.00 76 1010.5
20260508134845 51 120 2.6 7.8 0.00 0.02 0.00 76 1010.2
20260508134331 50 118 5.2 6.1 0.00 0.02 0.00 79 1010.2
20260508133614 50 159 3.5 6.1 0.00 0.02 0.00 79 1010.2
20260508133114 49 123 2.6 5.2 0.00 0.02 0.00 81 1010.2
20260508132837 49 76 3.5 5.2 0.00 0.02 0.00 81 1010.2
20260508132330 49 125 2.6 5.2 0.00 0.02 0.00 82 1010.2
20260508131611 48 93 3.5 6.1 0.00 0.02 0.00 83 1010.2
20260508131112 47 81 3.5 6.1 0.00 0.02 0.00 84 1009.8
20260508130610 47 82 4.3 5.2 0.00 0.02 0.00 85 1010.5
20260508130113 47 82 4.3 5.2 0.00 0.02 0.00 88 1010.2
20260508125608 46 108 2.6 4.3 0.00 0.02 0.00 88 1010.2
20260508125109 46 82 4.3 4.3 0.00 0.02 0.00 90 1010.2
20260508124606 45 85 2.6 3.5 0.00 0.02 0.00 91 1010.2
20260508124107 44 128 2.6 4.3 0.00 0.02 0.00 92 1010.2
20260508123606 44 110 1.7 7.0 0.00 0.02 0.00 93 1010.2
20260508123330 43 104 3.5 7.0 0.00 0.02 0.00 93 1010.2
20260508122606 43 82 2.6 5.2 0.00 0.02 0.00 94 1010.2
20260508122107 42 129 2.6 4.3 0.00 0.02 0.00 95 1010.5
20260508121824 42 87 2.6 4.3 0.00 0.02 0.00 96 1010.5
20260508121104 42 166 2.6 3.5 0.00 0.02 0.00 96 1010.5
20260508120604 41 108 1.7 3.5 0.00 0.02 0.00 97 1010.2
20260508120115 41 99 2.6 4.3 0.00 0.02 0.00 97 1010.5
20260508115604 41 78 2.6 5.2 0.00 0.02 0.00 97 1010.2
20260508115103 41 65 4.3 5.2 0.00 0.02 0.00 97 1010.2
20260508114821 40 57 2.6 4.3 0.00 0.02 0.00 97 1010.2
20260508114102 40 69 1.7 2.6 0.00 0.02 0.00 97 1010.2
20260508113825 39 64 0.9 1.7 0.00 0.02 0.00 97 1010.5
20260508113327 39 122 0.0 1.7 0.00 0.02 0.00 97 1010.2
20260508112559 39 149 0.9 2.6 0.00 0.02 0.00 97 1010.2
20260508112058 38 111 0.0 2.6 0.00 0.02 0.00 97 1010.2
20260508111558 38 76 0.0 1.7 0.00 0.02 0.00 97 1010.2
20260508111057 38 19 1.7 1.7 0.00 0.02 0.00 97 1009.8
20260508110107 37 66 0.0 1.7 0.00 0.02 0.00 96 1009.8
20260508105556 37 32 1.7 1.7 0.00 0.02 0.00 96 1009.8
20260508105055 37 101 0.9 0.9 0.00 0.02 0.00 96 1009.8
20260508104815 37 108 0.0 0.9 0.00 0.02 0.00 96 1009.8
20260508104055 37 44 0.0 1.7 0.00 0.02 0.00 96 1009.8
20260508103554 37 32 0.0 2.6 0.00 0.02 0.00 96 1009.8
20260508103053 37 50 1.7 2.6 0.00 0.02 0.00 96 1009.8
20260508102557 37 16 0.9 1.7 0.00 0.02 0.00 96 1009.8
20260508102052 38 15 0.9 1.7 0.00 0.02 0.00 96 1009.8
20260508101818 37 5 1.7 1.7 0.00 0.02 0.00 96 1009.8
20260508101053 37 53 0.0 1.7 0.00 0.02 0.00 96 1009.8
20260508100550 37 13 1.7 1.7 0.00 0.02 0.00 96 1009.8
20260508100327 37 25 0.9 1.7 0.00 0.02 0.00 95 1010.2
20260508095550 37 48 0.0 0.9 0.00 0.02 0.00 95 1009.8
20260508095050 37 119 0.0 0.9 0.00 0.02 0.00 95 1009.8
20260508094548 37 72 0.0 0.9 0.00 0.02 0.00 95 1010.2
20260508094048 37 147 0.0 1.7 0.00 0.02 0.00 95 1010.2
20260508093809 38 112 0.0 1.7 0.00 0.02 0.00 95 1010.2
20260508093046 38 55 0.0 0.0 0.00 0.02 0.00 95 1010.2
20260508092547 38 55 0.0 0.0 0.00 0.02 0.00 95 1010.5
20260508092045 38 55 0.0 0.9 0.00 0.02 0.00 95 1010.2
20260508091546 38 55 0.0 1.7 0.00 0.02 0.00 95 1010.2
20260508091044 38 69 0.0 1.7 0.00 0.02 0.00 95 1010.2
20260508090601 38 34 1.7 1.7 0.00 0.02 0.00 95 1010.2
20260508090044 38 38 1.7 1.7 0.00 0.02 0.00 94 1010.5
20260508085546 38 44 0.0 0.0 0.00 0.02 0.00 94 1010.2
20260508085043 38 44 0.0 1.7 0.00 0.02 0.00 94 1010.5
20260508084544 38 315 0.0 1.7 0.00 0.02 0.00 94 1010.5
20260508084049 38 46 0.9 1.7 0.00 0.02 0.00 94 1010.2
20260508084042 38 32 0.0 1.7 0.00 0.02 0.00 94 1010.2
20260508082840 39 89 0.0 2.6 0.00 0.02 0.00 93 1010.2
20260508082601 39 25 0.0 2.6 0.00 0.02 0.00 93 1010.5
20260508081841 39 24 1.7 1.7 0.00 0.02 0.00 93 1010.9
20260508081338 39 32 0.0 1.7 0.00 0.02 0.00 93 1010.5
20260508080840 39 60 0.0 1.7 0.00 0.02 0.00 93 1010.5
20260508080337 39 35 0.0 1.7 0.00 0.02 0.00 93 1010.9
20260508075837 39 76 0.0 0.9 0.00 0.02 0.00 93 1010.5
20260508075558 39 72 0.0 1.7 0.00 0.02 0.00 92 1010.5
20260508074836 39 19 0.0 1.7 0.00 0.02 0.00 92 1010.5
20260508074334 39 13 0.0 1.7 0.00 0.02 0.00 92 1010.9
20260508073840 39 32 0.0 1.7 0.00 0.02 0.00 91 1010.5
20260508073334 39 26 1.7 1.7 0.00 0.02 0.00 91 1010.9
20260508072835 40 5 1.7 1.7 0.00 0.02 0.00 90 1010.9
20260508072334 40 12 1.7 1.7 0.00 0.02 0.00 90 1010.9
20260508072054 40 47 0.9 1.7 0.00 0.02 0.00 90 1010.9